#timestamp,LO_Frequency,Hit,StdDev 
1558213215.1,286047002.0,N
1558213235.9,286047000.0,N
1558213255.7,286047000.8,N
1558213275.6,286047000.4,N
1558213295.4,286047002.8,N
1558213315.2,286047000.1,N
1558213335.1,286047004.0,N
1558213336.0,286047004.0,N
1558213355.8,286046999.8,N
1558213375.7,286047001.1,N
1558213395.5,286046999.0,N
1558213415.3,286046999.1,N
1558213435.2,286047000.7,N
1558213455.9,286047000.7,N
1558213475.7,286047000.4,N
1558213495.6,286046998.2,N
1558213515.4,286046998.6,N
1558213535.3,286047000.1,N
1558213555.1,286047003.3,N
1558213556.0,286047003.3,N
1558213575.8,286047003.3,N
1558213595.7,286047002.2,N
1558213615.5,286047000.4,N
1558213635.3,286046998.2,N
1558213655.2,286046996.6,N
1558213675.0,286047001.1,N
1558213675.9,286047001.1,N
1558213695.8,286046999.4,N
1558213715.6,286046999.6,N
1558213735.4,286047001.1,N
1558213755.3,286046996.7,N
1558213775.1,286046996.9,N
1558213795.8,286046996.7,N
1558213815.7,286046998.1,N
1558213835.5,286046998.1,N
1558213855.4,286046999.9,N
1558213875.2,286047001.5,N
1558213895.0,286047002.2,N
1558213895.9,286047002.2,N
1558213915.8,286047004.1,N
1558213935.6,286047005.6,N
1558213955.4,286047005.9,N
1558213975.3,286047002.3,N
1558213995.1,286047001.9,N
1558214015.9,286047001.1,N
1558214035.7,286046999.0,N
1558214055.5,286046998.9,N
1558214075.4,286046998.4,N
1558214095.2,286047002.6,N
1558214115.4,286047001.0,N
1558214135.2,286046999.9,N
1558214155.0,286046999.8,N
1558214155.9,286046999.8,N
1558214175.8,286046998.4,N
1558214195.6,286046998.3,N
1558214215.5,286047001.4,N
1558214235.3,286047002.3,N
1558214255.1,286047003.5,N
1558214275.9,286047003.6,N
1558214295.7,286047002.0,N
1558214315.6,286046998.6,N
1558214335.4,286046997.0,N
1558214355.2,286046998.1,N
1558214375.1,286046999.6,N
1558214376.0,286046999.6,N
1558214395.8,286046998.5,N
1558214415.6,286046994.9,N
1558214435.5,286046999.5,N
1558214455.3,286046998.9,N
1558214475.2,286047001.0,N
1558214495.9,286047000.0,N
1558214515.7,286047002.3,N
1558214535.6,286047002.7,N
1558214555.4,286047001.5,N
1558214575.2,286047001.2,N
1558214595.1,286047000.8,N
1558214596.0,286047000.8,N
1558214615.8,286047002.8,N
1558214635.7,286047000.4,N
1558214655.5,286047001.4,N
1558214675.3,286047002.1,N
1558214695.2,286047001.2,N
1558214715.0,286047000.6,N
1558214715.9,286047000.6,N
1558214735.8,286047000.7,N
1558214755.6,286047001.6,N
1558214775.4,286047001.6,N
1558214795.3,286047002.6,N
1558214815.1,286047001.3,N
1558214835.9,286047005.5,Y
1558214855.7,286047004.0,P
1558214875.5,286047002.4,N
1558214895.4,286047002.8,N
1558214915.2,286047002.2,N
1558214935.0,286047002.7,N
1558214936.0,286047002.7,N
1558214955.8,286047000.6,N
1558214975.6,286047002.8,N
1558214995.5,286047000.4,N
1558215015.3,286046999.9,N
1558215035.1,286046998.3,N
1558215055.9,286047001.2,N
1558215075.7,286046998.4,N
1558215095.6,286046997.2,N
1558215115.4,286046996.6,N
1558215135.2,286046998.5,N
1558215155.1,286046997.5,N
1558215175.9,286046995.5,N
1558215195.7,286046996.4,N
1558215215.6,286046995.0,N
1558215235.4,286046995.7,N
1558215255.2,286046995.6,N
1558215275.1,286046994.9,N
1558215276.0,286046994.9,N
1558215295.8,286046996.6,N
1558215315.6,286046996.7,N
1558215335.5,286046999.4,N
1558215355.3,286046998.1,N
1558215375.2,286046999.0,N
1558215395.9,286046999.6,N
1558215415.7,286046999.5,N
1558215435.6,286046996.7,N
1558215455.4,286046995.0,N
1558215475.2,286046995.5,N
1558215495.1,286046994.2,N
1558215496.0,286046994.2,N
1558215515.8,286046993.5,N
1558215535.7,286046997.8,N
1558215555.5,286046997.0,N
1558215575.3,286046996.5,N
1558215595.2,286046997.5,N
1558215615.9,286046997.1,N
1558215635.7,286046996.8,N
1558215655.6,286046999.6,N
1558215675.4,286046999.0,N
1558215695.2,286046996.6,N
1558215715.1,286046999.6,N
1558215716.0,286046999.6,N
1558215735.8,286046996.7,N
1558215755.7,286046997.7,N
1558215775.5,286046997.0,N
1558215795.3,286046995.5,N
1558215815.2,286046994.0,Y
1558215835.0,286046997.3,P
1558215835.9,286046997.3,P
1558215855.8,286046997.3,P
1558215875.6,286046997.7,Y
1558215895.4,286047000.7,P
1558215915.3,286047000.5,N
1558215935.1,286046998.3,N
1558215955.9,286046999.3,N
1558215975.7,286046999.3,N
1558215995.5,286047000.2,N
1558216015.4,286047002.6,N
1558216035.2,286046999.7,N
1558216055.0,286047001.8,N
1558216055.9,286047001.8,N
1558216075.8,286047001.0,N
1558216095.6,286046996.5,N
1558216115.5,286046998.9,N
1558216135.3,286046997.7,N
1558216155.1,286046999.5,N
1558216175.9,286046999.4,N
1558216195.7,286047001.1,N
1558216215.5,286046999.6,N
1558216235.4,286046999.6,N
1558216255.2,286046999.5,N
1558216275.1,286047002.2,N
1558216276.0,286047002.2,N
1558216295.8,286047001.4,N
1558216315.6,286047004.2,N
1558216335.5,286047001.7,N
1558216355.3,286047002.0,N
1558216375.1,286047002.0,N
1558216395.9,286047002.7,N
1558216415.7,286047001.9,N
1558216435.5,286047004.2,N
1558216455.4,286047002.1,N
1558216475.2,286047000.4,N
1558216495.1,286047002.4,N
1558216496.0,286047002.4,N
1558216515.8,286047001.0,N
1558216535.6,286047002.2,N
1558216555.5,286047002.6,N
1558216575.3,286047002.5,N
1558216595.1,286047004.4,N
1558216615.9,286046999.9,N
1558216635.7,286047002.2,N
1558216655.6,286047003.9,N
1558216675.4,286047004.0,N
1558216695.2,286047003.9,N
1558216715.1,286047004.7,Y
1558216716.0,286047004.7,P
1558216735.8,286047004.3,P
1558216755.7,286047002.7,N
1558216775.5,286047000.9,N
1558216795.3,286047002.3,N
